Zurück zum Katalog

STARLINK-34346

AktivKommunikationSSO
NORAD 64155·PAYLOAD·🇺🇸 United States

Gestartet May 27, 2025 von Vandenberg Space Force Base

Loading…

Nächste Überflüge (nächste 24 Stunden)

TLE

AktuellSource: CelesTrak SupGP

Epoche: Sep 14, 2026, 21:24 UTC

1 64155C 25112K   26257.89215278  .00031636  00000+0  94450-3 0  2576
2 64155  97.2789 305.0475 0001080 137.9866  64.9952 15.34659563    11

Verfolge STARLINK-34346 in Echtzeit mit AllMySat

Download on the App Store